Regional Weather Roundup
Issued by NWS

Home | Current Version | Previous Version | Text Only | Print | Product List | Glossary Off
Versions: 1 2 3 4 5 6 7 8 9 10 11 12 13 14 15 16 17 18 19 20 21 22 23 24 25 26 27 28 29 30 31 32 33 34 35 36 37 38 39 40 41 42 43 44 45 46 47 48 49 50

000
ASUS45 KBOI 260810
RWRID
WEATHER ROUNDUP FOR IDAHO
NATIONAL WEATHER SERVICE BOISE ID
200 AM MDT THU MAR 26 2015

NOTE: "FAIR" INDICATES FEW OR NO CLOUDS BELOW 12000 FEET
WITH NO SIGNIFICANT WEATHER AND/OR OBSTRUCTIONS TO VISIBILITY

IDZ012-014-260900-
SOUTHWEST IDAHO


CITY           SKY/WX    TMP DP  RH WIND       PRES   REMARKS
BOISE          CLEAR     40  34  79 CALM      30.42R
CALDWELL       CLEAR     37  28  70 SW5       30.43F WCI  34
MOUNTAIN HOME  CLEAR     36  32  85 W7        30.41S WCI  30
$$

IDZ016-017-260900-
SOUTHCENTRAL IDAHO


CITY           SKY/WX    TMP DP  RH WIND       PRES   REMARKS
BURLEY         CLEAR     41  30  65 SW9       30.38S
JEROME         CLEAR     38  31  76 S5        30.40R WCI  34
TWIN FALLS     CLEAR     38  29  70 S9        30.41R WCI  31
$$

IDZ019>023-260900-
SOUTHEAST IDAHO


CITY           SKY/WX    TMP DP  RH WIND       PRES   REMARKS
IDAHO FALLS    PTCLDY    38  26  62 SW15      30.36S WCI  29
POCATELLO      CLEAR     41  31  67 SW14      30.38F
REXBURG        PTCLDY    37  25  61 S9        30.35R WCI  30
$$

IDZ006-010-011-018-031-032-260900-
CENTRAL IDAHO MOUNTAINS


CITY           SKY/WX    TMP DP  RH WIND       PRES   REMARKS
MCCALL         MOCLDY    29  28  96 CALM      30.39F
HAILEY         CLEAR     36  28  75 NW12      30.39S WCI  27
STANLEY          N/A     29  24  82 S5        30.43S WCI  24
SALMON         CLOUDY    45  30  57 CALM      30.34F
CHALLIS        CLOUDY    41  28  60 SE7       30.38F
$$

IDZ002-004-006-007-026-260900-
NORTHERN IDAHO


CITY           SKY/WX    TMP DP  RH WIND       PRES   REMARKS
LEWISTON       CLOUDY    47  43  86 CALM      30.34S
LOWELL           N/A     44  42  93 CALM      30.42F
COEUR D`ALENE  CLOUDY    45  43  93 S6        30.31S
MULLAN PASS    MIX PCPN  32  32 100 SW8G20    30.28S VSB 1/4 WCI  25
$$


USA.gov is the U.S. government's official web portal to all federal, state and local government web resources and services.